Time,TemperatureF,DewpointF,PressureIn,WindDirection,WindDirectionDegrees,WindSpeedMPH,WindSpeedGustMPH,Humidity,HourlyPrecipIn,Conditions,Clouds,dailyrainin,SoftwareType,DateUTC
2013-07-09 00:02:00,76.0,74.0,30.11,South,191,0.0,7.0,94,0.00,,,0.14,,2013-07-09 05:02:00,
2013-07-09 00:11:00,76.0,74.0,30.11,South,191,0.0,7.0,94,0.00,,,0.14,,2013-07-09 05:11:00,
2013-07-09 00:22:00,76.0,74.0,30.11,South,191,0.0,0.0,95,0.00,,,0.14,,2013-07-09 05:22:00,
2013-07-09 00:33:00,76.0,74.0,30.11,SE,136,0.0,2.0,94,0.00,,,0.14,,2013-07-09 05:33:00,
2013-07-09 00:42:00,76.0,74.0,30.11,SE,136,0.0,2.0,94,0.00,,,0.14,,2013-07-09 05:42:00,
2013-07-09 00:52:00,76.0,74.0,30.11,SE,136,0.0,2.0,94,0.00,,,0.14,,2013-07-09 05:52:00,
2013-07-09 01:01:00,76.0,74.0,30.11,SE,136,0.0,2.0,95,0.00,,,0.14,,2013-07-09 06:01:00,
2013-07-09 01:11:00,76.0,74.0,30.10,SE,136,0.0,2.0,95,0.00,,,0.13,,2013-07-09 06:11:00,
2013-07-09 01:22:00,76.0,74.0,30.09,SE,136,0.0,2.0,95,0.00,,,0.13,,2013-07-09 06:22:00,
2013-07-09 01:33:00,76.0,74.0,30.09,East,82,0.0,2.0,95,0.00,,,0.13,,2013-07-09 06:33:00,
2013-07-09 01:43:00,76.0,74.0,30.09,East,82,0.0,2.0,95,0.00,,,0.13,,2013-07-09 06:43:00,
2013-07-09 01:53:00,75.0,73.0,30.09,East,82,0.0,2.0,95,0.00,,,0.13,,2013-07-09 06:53:00,
2013-07-09 02:02:00,75.0,73.0,30.09,East,82,0.0,2.0,95,0.00,,,0.13,,2013-07-09 07:02:00,
2013-07-09 02:12:00,75.0,73.0,30.09,East,82,0.0,2.0,95,0.00,,,0.13,,2013-07-09 07:12:00,
2013-07-09 02:22:00,75.0,73.0,30.09,East,82,0.0,2.0,95,0.00,,,0.13,,2013-07-09 07:22:00,
2013-07-09 02:34:00,75.0,73.0,30.08,East,82,0.0,2.0,95,0.00,,,0.13,,2013-07-09 07:34:00,
2013-07-09 02:43:00,75.0,73.0,30.09,East,82,0.0,2.0,95,0.00,,,0.13,,2013-07-09 07:43:00,
2013-07-09 02:53:00,75.0,73.0,30.09,East,82,0.0,2.0,95,0.00,,,0.13,,2013-07-09 07:53:00,
2013-07-09 03:01:00,74.0,73.0,30.09,East,82,0.0,2.0,96,0.00,,,0.13,,2013-07-09 08:01:00,
2013-07-09 03:11:00,74.0,73.0,30.09,East,82,0.0,2.0,96,0.00,,,0.13,,2013-07-09 08:11:00,
2013-07-09 03:22:00,74.0,73.0,30.09,East,82,0.0,2.0,96,0.00,,,0.13,,2013-07-09 08:22:00,
2013-07-09 03:33:00,74.0,73.0,30.09,East,82,0.0,2.0,96,0.00,,,0.13,,2013-07-09 08:33:00,
2013-07-09 03:43:00,74.0,73.0,30.09,East,82,0.0,2.0,96,0.00,,,0.13,,2013-07-09 08:43:00,
2013-07-09 03:52:00,74.0,73.0,30.09,East,82,0.0,2.0,96,0.00,,,0.13,,2013-07-09 08:52:00,
2013-07-09 04:02:00,74.0,73.0,30.09,East,82,0.0,2.0,96,0.00,,,0.13,,2013-07-09 09:02:00,
2013-07-09 04:12:00,74.0,73.0,30.09,East,82,0.0,2.0,96,0.00,,,0.13,,2013-07-09 09:12:00,
2013-07-09 04:22:00,74.0,73.0,30.09,East,82,0.0,2.0,96,0.00,,,0.13,,2013-07-09 09:22:00,
2013-07-09 04:34:00,73.0,72.0,30.09,East,82,0.0,2.0,96,0.00,,,0.13,,2013-07-09 09:34:00,
2013-07-09 04:42:00,73.0,72.0,30.09,East,82,0.0,2.0,96,0.00,,,0.13,,2013-07-09 09:42:00,
2013-07-09 04:52:00,73.0,72.0,30.10,East,82,0.0,2.0,96,0.00,,,0.13,,2013-07-09 09:52:00,
2013-07-09 05:01:00,73.0,72.0,30.10,East,82,0.0,2.0,96,0.00,,,0.13,,2013-07-09 10:01:00,
2013-07-09 05:11:00,73.0,72.0,30.10,East,82,0.0,2.0,96,0.00,,,0.13,,2013-07-09 10:11:00,
2013-07-09 05:22:00,73.0,72.0,30.10,East,82,0.0,2.0,96,0.00,,,0.13,,2013-07-09 10:22:00,
2013-07-09 05:33:00,73.0,72.0,30.11,East,82,0.0,2.0,96,0.00,,,0.13,,2013-07-09 10:33:00,
2013-07-09 05:42:00,73.0,72.0,30.11,East,82,0.0,2.0,97,0.01,,,0.14,,2013-07-09 10:42:00,
2013-07-09 05:52:00,73.0,72.0,30.11,East,82,0.0,2.0,96,0.01,,,0.14,,2013-07-09 10:52:00,
2013-07-09 06:01:00,73.0,72.0,30.11,East,82,0.0,2.0,97,0.01,,,0.14,,2013-07-09 11:01:00,
2013-07-09 06:11:00,73.0,72.0,30.11,East,82,0.0,2.0,97,0.01,,,0.14,,2013-07-09 11:11:00,
2013-07-09 06:22:00,73.0,72.0,30.12,East,82,0.0,2.0,97,0.01,,,0.14,,2013-07-09 11:22:00,
2013-07-09 06:33:00,73.0,72.0,30.12,East,82,0.0,2.0,97,0.01,,,0.14,,2013-07-09 11:33:00,
2013-07-09 06:42:00,73.0,72.0,30.13,East,82,0.0,2.0,97,0.00,,,0.14,,2013-07-09 11:42:00,
2013-07-09 06:53:00,73.0,72.0,30.13,East,82,0.0,2.0,98,0.00,,,0.14,,2013-07-09 11:53:00,
2013-07-09 07:02:00,73.0,72.0,30.13,East,82,0.0,2.0,98,0.00,,,0.14,,2013-07-09 12:02:00,
2013-07-09 07:11:00,73.0,72.0,30.14,East,82,0.0,2.0,98,0.00,,,0.14,,2013-07-09 12:11:00,
2013-07-09 07:22:00,73.0,72.0,30.14,East,82,0.0,2.0,98,0.00,,,0.14,,2013-07-09 12:22:00,
2013-07-09 07:33:00,73.0,72.0,30.14,East,82,0.0,2.0,98,0.00,,,0.14,,2013-07-09 12:33:00,
2013-07-09 07:43:00,74.0,73.0,30.15,East,82,0.0,2.0,98,0.00,,,0.14,,2013-07-09 12:43:00,
2013-07-09 07:52:00,74.0,73.0,30.15,NE,48,0.0,2.0,98,0.00,,,0.14,,2013-07-09 12:52:00,
2013-07-09 08:01:00,75.0,74.0,30.15,West,271,0.0,3.0,98,0.00,,,0.14,,2013-07-09 13:01:00,
2013-07-09 08:11:00,75.0,74.0,30.15,West,265,0.0,3.0,98,0.00,,,0.14,,2013-07-09 13:11:00,
2013-07-09 08:22:00,75.0,74.0,30.15,West,259,0.0,3.0,98,0.00,,,0.14,,2013-07-09 13:22:00,
2013-07-09 08:33:00,76.0,75.0,30.15,NW,319,1.0,5.0,98,0.00,,,0.14,,2013-07-09 13:33:00,
2013-07-09 08:43:00,76.0,75.0,30.16,NW,311,1.0,5.0,98,0.00,,,0.14,,2013-07-09 13:43:00,
2013-07-09 08:53:00,76.0,75.0,30.16,NW,311,0.0,5.0,98,0.00,,,0.14,,2013-07-09 13:53:00,
2013-07-09 09:01:00,77.0,76.0,30.16,WNW,303,1.0,5.0,98,0.00,,,0.14,,2013-07-09 14:01:00,
2013-07-09 09:11:00,77.0,76.0,30.15,NW,315,0.0,5.0,97,0.00,,,0.14,,2013-07-09 14:11:00,
2013-07-09 09:22:00,78.0,77.0,30.16,NNW,343,0.0,5.0,96,0.00,,,0.14,,2013-07-09 14:22:00,
2013-07-09 09:34:00,79.0,78.0,30.16,NNW,343,0.0,5.0,96,0.00,,,0.14,,2013-07-09 14:34:00,
2013-07-09 09:43:00,79.0,77.0,30.15,NNW,339,2.0,5.0,95,0.00,,,0.14,,2013-07-09 14:43:00,
2013-07-09 09:53:00,80.0,77.0,30.15,NNW,332,2.0,6.0,92,0.00,,,0.14,,2013-07-09 14:53:00,
2013-07-09 10:02:00,82.0,79.0,30.15,NNW,332,0.0,7.0,90,0.00,,,0.14,,2013-07-09 15:02:00,
2013-07-09 10:12:00,83.0,79.0,30.15,North,353,2.0,9.0,88,0.00,,,0.14,,2013-07-09 15:12:00,
2013-07-09 10:22:00,83.0,78.0,30.15,NNW,346,2.0,9.0,85,0.00,,,0.14,,2013-07-09 15:22:00,
2013-07-09 10:33:00,84.0,78.0,30.15,NNW,340,2.0,9.0,83,0.00,,,0.14,,2013-07-09 15:33:00,
2013-07-09 10:43:00,85.0,79.0,30.15,West,261,0.0,9.0,82,0.00,,,0.14,,2013-07-09 15:43:00,
2013-07-09 10:52:00,86.0,79.0,30.15,NW,310,1.0,9.0,80,0.00,,,0.14,,2013-07-09 15:52:00,
2013-07-09 11:02:00,86.0,79.0,30.15,NW,306,0.0,9.0,81,0.00,,,0.14,,2013-07-09 16:02:00,
2013-07-09 11:11:00,86.0,78.0,30.15,NW,310,0.0,9.0,78,0.00,,,0.14,,2013-07-09 16:11:00,
2013-07-09 11:22:00,87.0,78.0,30.15,NNW,342,0.0,9.0,76,0.00,,,0.14,,2013-07-09 16:22:00,
2013-07-09 11:34:00,87.0,78.0,30.14,NNW,342,0.0,9.0,74,0.00,,,0.14,,2013-07-09 16:34:00,
2013-07-09 11:43:00,88.0,79.0,30.14,NW,317,0.0,9.0,74,0.00,,,0.14,,2013-07-09 16:43:00,
2013-07-09 11:52:00,88.0,79.0,30.14,NNW,332,1.0,9.0,74,0.00,,,0.14,,2013-07-09 16:52:00,
2013-07-09 12:02:00,89.0,78.0,30.13,WSW,254,2.0,9.0,71,0.00,,,0.14,,2013-07-09 17:02:00,
2013-07-09 12:11:00,90.0,78.0,30.12,WNW,303,0.0,9.0,69,0.00,,,0.14,,2013-07-09 17:11:00,
2013-07-09 12:22:00,90.0,78.0,30.12,NW,316,2.0,9.0,68,0.00,,,0.14,,2013-07-09 17:22:00,
2013-07-09 12:35:00,89.0,76.0,30.12,NW,316,0.0,9.0,66,0.00,,,0.14,,2013-07-09 17:35:00,
2013-07-09 12:45:00,89.0,77.0,30.12,WNW,288,0.0,9.0,67,0.00,,,0.14,,2013-07-09 17:45:00,
2013-07-09 12:53:00,88.0,77.0,30.12,WNW,288,0.0,9.0,70,0.00,,,0.14,,2013-07-09 17:53:00,
2013-07-09 13:02:00,88.0,78.0,30.11,SSW,195,0.0,9.0,72,0.00,,,0.14,,2013-07-09 18:02:00,
2013-07-09 13:11:00,89.0,76.0,30.11,South,187,0.0,9.0,66,0.00,,,0.14,,2013-07-09 18:11:00,
2013-07-09 13:22:00,90.0,76.0,30.11,NNW,328,0.0,9.0,64,0.00,,,0.14,,2013-07-09 18:22:00,
2013-07-09 13:32:00,90.0,76.0,30.11,NNW,327,0.0,9.0,64,0.00,,,0.14,,2013-07-09 18:32:00,
2013-07-09 13:43:00,89.0,77.0,30.10,NNW,328,0.0,9.0,68,0.00,,,0.14,,2013-07-09 18:43:00,
2013-07-09 13:52:00,90.0,77.0,30.10,NNE,20,0.0,9.0,66,0.00,,,0.14,,2013-07-09 18:52:00,
2013-07-09 14:01:00,90.0,76.0,30.09,NW,313,0.0,9.0,64,0.00,,,0.14,,2013-07-09 19:01:00,
2013-07-09 14:11:00,90.0,76.0,30.09,NW,313,0.0,9.0,63,0.00,,,0.14,,2013-07-09 19:11:00,
2013-07-09 14:22:00,90.0,78.0,30.09,NW,313,0.0,9.0,67,0.00,,,0.14,,2013-07-09 19:22:00,
2013-07-09 14:33:00,89.0,76.0,30.09,NW,322,0.0,9.0,66,0.00,,,0.14,,2013-07-09 19:33:00,
2013-07-09 14:42:00,90.0,78.0,30.08,NW,322,0.0,9.0,67,0.00,,,0.14,,2013-07-09 19:42:00,
2013-07-09 14:52:00,91.0,75.0,30.08,NW,322,0.0,9.0,60,0.00,,,0.14,,2013-07-09 19:52:00,
2013-07-09 15:01:00,91.0,76.0,30.08,NW,322,0.0,9.0,61,0.00,,,0.14,,2013-07-09 20:01:00,
2013-07-09 15:11:00,93.0,76.0,30.07,WNW,300,0.0,9.0,58,0.00,,,0.14,,2013-07-09 20:11:00,
2013-07-09 15:22:00,94.0,76.0,30.07,NW,315,3.0,9.0,56,0.00,,,0.14,,2013-07-09 20:22:00,
2013-07-09 15:32:00,95.0,76.0,30.06,NW,322,0.0,9.0,55,0.00,,,0.14,,2013-07-09 20:32:00,
2013-07-09 15:42:00,95.0,75.0,30.06,NW,315,0.0,9.0,53,0.00,,,0.14,,2013-07-09 20:42:00,
2013-07-09 15:52:00,94.0,76.0,30.06,SSE,163,0.0,9.0,57,0.00,,,0.14,,2013-07-09 20:52:00,
2013-07-09 16:01:00,95.0,74.0,30.05,West,265,1.0,9.0,51,0.00,,,0.14,,2013-07-09 21:01:00,
2013-07-09 16:11:00,95.0,73.0,30.05,NW,310,0.0,9.0,50,0.00,,,0.14,,2013-07-09 21:11:00,
2013-07-09 16:22:00,96.0,74.0,30.04,WNW,303,0.0,9.0,50,0.00,,,0.14,,2013-07-09 21:22:00,
2013-07-09 16:32:00,96.0,72.0,30.04,NNW,341,0.0,9.0,46,0.00,,,0.14,,2013-07-09 21:32:00,
2013-07-09 16:42:00,96.0,72.0,30.04,West,267,0.0,9.0,47,0.00,,,0.14,,2013-07-09 21:42:00,
2013-07-09 16:52:00,95.0,76.0,30.04,West,267,0.0,9.0,54,0.00,,,0.14,,2013-07-09 21:52:00,
2013-07-09 17:01:00,95.0,73.0,30.03,West,274,1.0,9.0,50,0.00,,,0.14,,2013-07-09 22:01:00,
2013-07-09 17:11:00,96.0,73.0,30.03,WNW,284,0.0,9.0,48,0.00,,,0.14,,2013-07-09 22:11:00,
2013-07-09 17:22:00,95.0,72.0,30.02,WNW,299,0.0,9.0,48,0.00,,,0.14,,2013-07-09 22:22:00,
2013-07-09 17:33:00,94.0,72.0,30.02,NNW,347,0.0,9.0,49,0.00,,,0.14,,2013-07-09 22:33:00,
2013-07-09 17:42:00,94.0,74.0,30.02,NW,324,0.0,9.0,52,0.00,,,0.14,,2013-07-09 22:42:00,
2013-07-09 17:53:00,94.0,73.0,30.02,NW,324,0.0,9.0,51,0.00,,,0.14,,2013-07-09 22:53:00,
2013-07-09 18:02:00,94.0,73.0,30.02,NNW,342,0.0,9.0,51,0.00,,,0.14,,2013-07-09 23:02:00,
2013-07-09 18:11:00,94.0,74.0,30.02,NNW,342,0.0,9.0,53,0.00,,,0.14,,2013-07-09 23:11:00,
2013-07-09 18:22:00,93.0,75.0,30.03,NNW,342,0.0,9.0,57,0.00,,,0.14,,2013-07-09 23:22:00,
2013-07-09 18:33:00,91.0,71.0,30.03,SSE,161,1.0,9.0,53,0.00,,,0.14,,2013-07-09 23:33:00,
2013-07-09 18:43:00,88.0,73.0,30.03,SSE,152,0.0,9.0,61,0.00,,,0.14,,2013-07-09 23:43:00,
2013-07-09 18:52:00,86.0,73.0,30.04,SSE,164,0.0,9.0,65,0.00,,,0.14,,2013-07-09 23:52:00,
2013-07-09 19:01:00,85.0,74.0,30.04,SSE,165,0.0,9.0,70,0.01,,,0.15,,2013-07-10 00:01:00,
2013-07-09 19:11:00,83.0,74.0,30.03,South,182,0.0,9.0,74,0.02,,,0.16,,2013-07-10 00:11:00,
2013-07-09 19:22:00,82.0,75.0,30.03,South,182,0.0,9.0,80,0.02,,,0.16,,2013-07-10 00:22:00,
2013-07-09 19:33:00,82.0,76.0,30.04,South,182,0.0,9.0,81,0.02,,,0.16,,2013-07-10 00:33:00,
2013-07-09 19:42:00,82.0,76.0,30.05,South,182,0.0,9.0,82,0.02,,,0.16,,2013-07-10 00:42:00,
2013-07-09 19:52:00,82.0,76.0,30.04,South,182,0.0,9.0,82,0.02,,,0.16,,2013-07-10 00:52:00,
2013-07-09 20:01:00,81.0,76.0,30.04,South,182,0.0,9.0,85,0.01,,,0.16,,2013-07-10 01:01:00,
2013-07-09 20:11:00,81.0,76.0,30.05,South,182,0.0,9.0,85,0.00,,,0.16,,2013-07-10 01:11:00,
2013-07-09 20:22:00,81.0,76.0,30.04,South,182,0.0,9.0,85,0.00,,,0.16,,2013-07-10 01:22:00,
2013-07-09 20:33:00,80.0,75.0,30.05,South,182,0.0,9.0,85,0.00,,,0.16,,2013-07-10 01:33:00,
2013-07-09 20:43:00,80.0,76.0,30.06,South,182,0.0,9.0,88,0.00,,,0.12,,2013-07-10 01:43:00,
2013-07-09 20:52:00,80.0,76.0,30.06,South,182,0.0,9.0,88,0.00,,,0.05,,2013-07-10 01:52:00,
2013-07-09 21:02:00,80.0,76.0,30.06,South,182,0.0,9.0,88,0.00,,,0.03,,2013-07-10 02:02:00,
2013-07-09 21:11:00,79.0,75.0,30.06,South,182,0.0,9.0,89,0.00,,,0.03,,2013-07-10 02:11:00,
2013-07-09 21:34:00,79.0,76.0,30.05,South,182,0.0,9.0,90,0.00,,,0.03,,2013-07-10 02:34:00,
2013-07-09 21:43:00,79.0,76.0,30.05,South,182,0.0,9.0,90,0.00,,,0.03,,2013-07-10 02:43:00,
2013-07-09 21:53:00,78.0,75.0,30.06,South,182,0.0,9.0,90,0.00,,,0.03,,2013-07-10 02:53:00,
2013-07-09 22:01:00,78.0,75.0,30.06,South,182,0.0,9.0,91,0.00,,,0.03,,2013-07-10 03:01:00,
2013-07-09 22:11:00,78.0,75.0,30.06,South,182,0.0,9.0,91,0.00,,,0.03,,2013-07-10 03:11:00,
2013-07-09 22:22:00,78.0,75.0,30.06,South,182,0.0,9.0,92,0.00,,,0.03,,2013-07-10 03:22:00,
2013-07-09 22:32:00,78.0,75.0,30.06,South,182,0.0,9.0,92,0.00,,,0.03,,2013-07-10 03:32:00,
2013-07-09 22:43:00,78.0,75.0,30.07,South,182,0.0,9.0,92,0.00,,,0.03,,2013-07-10 03:43:00,
2013-07-09 22:52:00,77.0,74.0,30.07,South,182,0.0,9.0,92,0.00,,,0.03,,2013-07-10 03:52:00,
2013-07-09 23:01:00,77.0,74.0,30.07,South,182,0.0,9.0,92,0.00,,,0.03,,2013-07-10 04:01:00,
2013-07-09 23:11:00,77.0,74.0,30.06,South,182,0.0,9.0,92,0.00,,,0.03,,2013-07-10 04:11:00,
2013-07-09 23:22:00,77.0,74.0,30.07,South,182,0.0,9.0,92,0.00,,,0.03,,2013-07-10 04:22:00,
2013-07-09 23:32:00,77.0,74.0,30.06,South,182,0.0,9.0,92,0.00,,,0.03,,2013-07-10 04:32:00,
2013-07-09 23:43:00,77.0,74.0,30.06,South,182,0.0,9.0,92,0.00,,,0.03,,2013-07-10 04:43:00,
2013-07-09 23:52:00,76.0,74.0,30.06,South,182,0.0,9.0,93,0.00,,,0.03,,2013-07-10 04:52:00,